"Period start","avg(HW err(1)/warn(2) (#))","avg(Visibility (m))","avg(Weather code (#))","avg(Precip intensity (mm/h))","min(HW err(1)/warn(2) (#))","max(HW err(1)/warn(2) (#))","std(HW err(1)/warn(2) (#))","med(HW err(1)/warn(2) (#))","min(Visibility (m))","max(Visibility (m))","std(Visibility (m))","med(Visibility (m))","min(Weather code (#))","max(Weather code (#))","std(Weather code (#))","med(Weather code (#))","min(Precip intensity (mm/h))","max(Precip intensity (mm/h))","std(Precip intensity (mm/h))","med(Precip intensity (mm/h))"
2014-05-08 00:00:00,2,2872,43,0.03,2,2,0,2,1858,5113,843,2663,10,77,33,40,0.00,0.10,0.05,0.00
2014-05-08 00:10:00,2,3595,10,0.00,2,2,0,2,2393,4584,577,3637,10,10,0,10,0.00,0.00,0.00,0.00
2014-05-08 00:20:00,2,5201,10,0.00,2,2,0,2,3795,8047,1237,4485,10,10,0,10,0.00,0.00,0.00,0.00
2014-05-08 00:30:00,2,4637,34,0.00,2,2,0,2,3402,6213,861,4553,10,71,30,10,0.00,0.00,0.00,0.00
2014-05-08 00:40:00,2,5262,25,0.01,2,2,0,2,4495,6078,511,5420,10,71,25,10,0.00,0.05,0.02,0.00
2014-05-08 00:50:00,2,6208,10,0.00,2,2,0,2,4271,9036,1313,6374,10,10,0,10,0.00,0.00,0.00,0.00
2014-05-08 01:00:00,2,8116,10,0.00,2,2,0,2,5691,9792,1159,8081,10,10,0,10,0.00,0.00,0.00,0.00
2014-05-08 01:10:00,2,14733,10,0.00,2,2,0,2,6393,22706,6045,13570,10,10,0,10,0.00,0.00,0.00,0.00
2014-05-08 01:20:00,2,24359,1,0.00,2,2,0,2,14436,46176,8850,21160,0,10,3,0,0.00,0.00,0.00,0.00
2014-05-08 01:30:00,2,18634,0,0.00,2,2,0,2,12395,35646,7293,17146,0,0,0,0,0.00,0.00,0.00,0.00
2014-05-08 01:40:00,2,12410,0,0.00,2,2,0,2,6366,21590,4889,10844,0,0,0,0,0.00,0.00,0.00,0.00
2014-05-08 01:50:00,2,20950,0,0.00,2,2,0,2,9514,34650,6826,21144,0,0,0,0,0.00,0.00,0.00,0.00
2014-05-08 02:00:00,2,30132,0,0.00,2,2,0,2,16750,43757,8948,29517,0,0,0,0,0.00,0.00,0.00,0.00
2014-05-08 02:10:00,2,27838,0,0.00,2,2,0,2,19750,39223,7119,27618,0,0,0,0,0.00,0.00,0.00,0.00
2014-05-08 02:20:00,2,31255,0,0.00,2,2,0,2,19018,45066,8173,30552,0,0,0,0,0.00,0.00,0.00,0.00
2014-05-08 02:30:00,2,26531,0,0.00,2,2,0,2,18439,36447,4363,25902,0,0,0,0,0.00,0.00,0.00,0.00
2014-05-08 02:40:00,2,32984,0,0.00,2,2,0,2,20149,40991,6416,34976,0,0,0,0,0.00,0.00,0.00,0.00
2014-05-08 02:50:00,2,28876,0,0.00,2,2,0,2,20854,45804,6457,27124,0,0,0,0,0.00,0.00,0.00,0.00
2014-05-08 03:00:00,2,20123,0,0.00,2,2,0,2,11898,40362,8719,16348,0,0,0,0,0.00,0.00,0.00,0.00
2014-05-08 03:10:00,2,14484,52,0.01,2,2,0,2,8793,22922,5082,12725,0,77,23,56,0.00,0.05,0.02,0.00
2014-05-08 03:20:00,2,30557,28,0.00,2,2,0,2,9942,49006,13361,35732,0,71,35,0,0.00,0.00,0.00,0.00
2014-05-08 03:30:00,2,28223,0,0.00,2,2,0,2,14732,50000,10560,27786,0,0,0,0,0.00,0.00,0.00,0.00
2014-05-08 03:40:00,2,28796,0,0.00,2,2,0,2,20150,35364,5319,30147,0,0,0,0,0.00,0.00,0.00,0.00
2014-05-08 03:50:00,2,35854,0,0.00,2,2,0,2,21491,50000,9192,36260,0,0,0,0,0.00,0.00,0.00,0.00
2014-05-08 04:00:00,2,31127,0,0.00,2,2,0,2,19511,44336,7678,29550,0,0,0,0,0.00,0.00,0.00,0.00
2014-05-08 04:10:00,2,31387,0,0.00,2,2,0,2,18920,44555,8539,27996,0,0,0,0,0.00,0.00,0.00,0.00
2014-05-08 04:20:00,2,25834,0,0.00,2,2,0,2,18420,32307,4219,25638,0,0,0,0,0.00,0.00,0.00,0.00
2014-05-08 04:30:00,2,32815,0,0.00,2,2,0,2,19208,45541,7208,34855,0,0,0,0,0.00,0.00,0.00,0.00
2014-05-08 04:40:00,2,27048,0,0.00,2,2,0,2,19509,39484,6945,23624,0,0,0,0,0.00,0.00,0.00,0.00
2014-05-08 04:50:00,2,27186,0,0.00,2,2,0,2,19331,38028,6353,25378,0,0,0,0,0.00,0.00,0.00,0.00
2014-05-08 05:00:00,2,24670,0,0.00,2,2,0,2,12836,39123,8841,24396,0,0,0,0,0.00,0.00,0.00,0.00
2014-05-08 05:10:00,2,29775,0,0.00,2,2,0,2,15783,47274,8317,27585,0,0,0,0,0.00,0.00,0.00,0.00
2014-05-08 05:20:00,2,27159,0,0.00,2,2,0,2,19017,31085,3490,28099,0,0,0,0,0.00,0.00,0.00,0.00
2014-05-08 05:30:00,2,22027,0,0.00,2,2,0,2,10589,34483,7792,21960,0,0,0,0,0.00,0.00,0.00,0.00
2014-05-08 05:40:00,2,30708,0,0.00,2,2,0,2,15518,50000,11104,30624,0,0,0,0,0.00,0.00,0.00,0.00
2014-05-08 05:50:00,2,10463,36,1.06,2,2,0,2,1493,34497,10512,6174,0,71,32,40,0.00,4.65,1.46,0.27
2014-05-08 06:00:00,2,1044,71,7.67,2,2,0,2,488,1794,436,1068,71,71,0,71,2.65,13.60,3.66,6.62
2014-05-08 06:10:00,2,2312,71,1.99,2,2,0,2,1409,3003,465,2401,71,71,0,71,0.45,3.65,1.21,1.45
2014-05-08 06:20:00,2,7654,62,0.19,2,2,0,2,3668,12028,2877,6532,41,71,14,71,0.00,1.30,0.37,0.08
2014-05-08 06:30:00,2,7766,19,0.01,2,2,0,2,5854,10271,1311,7546,10,41,14,10,0.00,0.05,0.02,0.00
2014-05-08 06:40:00,2,13567,10,0.00,2,2,0,2,6300,20491,4963,13906,10,10,0,10,0.00,0.00,0.00,0.00
2014-05-08 06:50:00,2,6370,6,0.00,2,2,0,2,2833,11736,2528,5792,0,10,5,10,0.00,0.00,0.00,0.00
2014-05-08 07:00:00,2,5770,10,0.00,2,2,0,2,3869,7935,1210,5664,10,10,0,10,0.00,0.00,0.00,0.00
2014-05-08 07:10:00,2,12182,8,0.00,2,2,0,2,4751,34856,8178,9933,0,10,4,10,0.00,0.00,0.00,0.00
2014-05-08 07:20:00,2,15000,0,0.00,2,2,0,2,8588,25776,4783,13297,0,0,0,0,0.00,0.00,0.00,0.00
2014-05-08 07:30:00,2,15070,0,0.00,2,2,0,2,10918,19274,2718,14238,0,0,0,0,0.00,0.00,0.00,0.00
2014-05-08 07:40:00,2,9341,0,0.00,2,2,0,2,6076,12872,2392,9031,0,0,0,0,0.00,0.00,0.00,0.00
2014-05-08 07:50:00,2,13677,6,0.00,2,2,0,2,8658,19608,3272,12671,0,10,5,10,0.00,0.00,0.00,0.00
2014-05-08 08:00:00,2,15510,0,0.00,2,2,0,2,7944,28625,5834,14420,0,0,0,0,0.00,0.00,0.00,0.00
2014-05-08 08:10:00,2,16517,0,0.00,2,2,0,2,10746,25933,4455,16183,0,0,0,0,0.00,0.00,0.00,0.00
2014-05-08 08:20:00,2,30148,0,0.00,2,2,0,2,15633,50000,9081,28893,0,0,0,0,0.00,0.00,0.00,0.00
2014-05-08 08:30:00,2,24895,0,0.00,2,2,0,2,11652,37194,8635,26210,0,0,0,0,0.00,0.00,0.00,0.00
2014-05-08 08:40:00,2,4384,7,0.00,2,2,0,2,3327,9031,1675,3627,0,10,5,10,0.00,0.00,0.00,0.00
2014-05-08 08:50:00,2,5639,10,0.00,2,2,0,2,4430,6823,764,5550,10,10,0,10,0.00,0.00,0.00,0.00
2014-05-08 09:00:00,2,6278,10,0.00,2,2,0,2,4612,8793,1195,6584,10,10,0,10,0.00,0.00,0.00,0.00
2014-05-08 09:10:00,2,7324,10,0.00,2,2,0,2,5119,10298,1757,6900,10,10,0,10,0.00,0.00,0.00,0.00
2014-05-08 09:20:00,2,5857,10,0.00,2,2,0,2,4663,8763,1379,5204,10,10,0,10,0.00,0.00,0.00,0.00
2014-05-08 09:30:00,2,6029,29,0.01,2,2,0,2,3555,8463,1657,6411,10,77,29,10,0.00,0.05,0.02,0.00
2014-05-08 09:40:00,2,7247,10,0.00,2,2,0,2,6209,9803,998,7058,10,10,0,10,0.00,0.00,0.00,0.00
2014-05-08 09:50:00,2,6267,10,0.00,2,2,0,2,5715,7343,530,6173,10,10,0,10,0.00,0.00,0.00,0.00
2014-05-08 10:00:00,2,7055,10,0.00,2,2,0,2,5130,10667,1755,6742,10,10,0,10,0.00,0.00,0.00,0.00
2014-05-08 10:10:00,2,6813,10,0.00,2,2,0,2,5495,8302,910,7148,10,10,0,10,0.00,0.00,0.00,0.00
2014-05-08 10:20:00,2,7215,10,0.00,2,2,0,2,6041,8790,923,7170,10,10,0,10,0.00,0.00,0.00,0.00
2014-05-08 10:30:00,2,5557,10,0.00,2,2,0,2,3040,7807,1394,5600,10,10,0,10,0.00,0.00,0.00,0.00
2014-05-08 10:40:00,2,4490,10,0.00,2,2,0,2,3144,7880,1263,4312,10,10,0,10,0.00,0.00,0.00,0.00
2014-05-08 10:50:00,2,5838,10,0.00,2,2,0,2,3644,7666,1236,5983,10,10,0,10,0.00,0.00,0.00,0.00
2014-05-08 11:00:00,2,6746,10,0.00,2,2,0,2,5190,8745,992,6774,10,10,0,10,0.00,0.00,0.00,0.00
2014-05-08 11:10:00,2,4930,10,0.00,2,2,0,2,3254,6587,971,4722,10,10,0,10,0.00,0.00,0.00,0.00
2014-05-08 11:20:00,2,5506,10,0.00,2,2,0,2,3354,7794,1235,5440,10,10,0,10,0.00,0.00,0.00,0.00
2014-05-08 11:30:00,2,4347,10,0.00,2,2,0,2,3345,5520,559,4248,10,10,0,10,0.00,0.00,0.00,0.00
2014-05-08 11:40:00,2,5163,10,0.00,2,2,0,2,2549,7599,1511,5231,10,10,0,10,0.00,0.00,0.00,0.00
2014-05-08 11:50:00,2,7436,10,0.00,2,2,0,2,5162,9817,1430,7140,10,10,0,10,0.00,0.00,0.00,0.00
2014-05-08 12:00:00,2,7271,10,0.00,2,2,0,2,5403,10283,1534,7333,10,10,0,10,0.00,0.00,0.00,0.00
2014-05-08 12:10:00,2,7773,10,0.00,2,2,0,2,4769,10730,1908,7996,10,10,0,10,0.00,0.00,0.00,0.00
2014-05-08 12:20:00,2,10197,10,0.00,2,2,0,2,7577,13439,1706,10096,10,10,0,10,0.00,0.00,0.00,0.00
2014-05-08 12:30:00,2,8780,10,0.00,2,2,0,2,7419,10183,783,8594,10,10,0,10,0.00,0.00,0.00,0.00
2014-05-08 12:40:00,2,8132,10,0.00,2,2,0,2,6799,9927,895,8062,10,10,0,10,0.00,0.00,0.00,0.00
2014-05-08 12:50:00,2,9056,10,0.00,2,2,0,2,7105,13596,1987,8408,10,10,0,10,0.00,0.00,0.00,0.00
2014-05-08 13:00:00,2,9453,10,0.00,2,2,0,2,6221,11972,1640,10096,10,10,0,10,0.00,0.00,0.00,0.00
2014-05-08 13:10:00,2,4808,75,0.06,2,2,0,2,3353,5625,592,4938,71,77,3,77,0.00,0.15,0.04,0.05
2014-05-08 13:20:00,2,4432,75,0.08,2,2,0,2,3105,5527,797,4334,71,77,3,77,0.05,0.15,0.04,0.05
2014-05-08 13:30:00,2,6941,77,0.03,2,2,0,2,5941,8183,724,6840,77,77,0,77,0.00,0.05,0.02,0.05
2014-05-08 13:40:00,2,6481,77,0.05,2,2,0,2,4000,9122,1535,6258,77,77,0,77,0.00,0.10,0.03,0.05
2014-05-08 13:50:00,2,5716,77,0.06,2,2,0,2,4683,7510,949,5467,77,77,0,77,0.00,0.10,0.04,0.05
2014-05-08 14:00:00,2,6677,30,0.00,2,2,0,2,4809,7619,945,7051,10,77,31,10,0.00,0.00,0.00,0.00
2014-05-08 14:10:00,2,4000,42,0.08,2,2,0,2,2305,6645,1339,3380,10,77,32,40,0.00,0.25,0.10,0.05
2014-05-08 14:20:00,2,1850,77,0.55,2,2,0,2,1534,2541,273,1857,77,77,0,77,0.20,0.80,0.20,0.55
2014-05-08 14:30:00,2,3362,74,0.20,2,2,0,2,2126,5317,1163,2966,71,77,3,74,0.00,0.50,0.16,0.20
2014-05-08 14:40:00,2,6204,10,0.00,2,2,0,2,3405,8913,1539,6071,10,10,0,10,0.00,0.00,0.00,0.00
2014-05-08 14:50:00,2,6654,10,0.00,2,2,0,2,4458,10293,1727,5980,10,10,0,10,0.00,0.00,0.00,0.00
2014-05-08 15:00:00,2,8136,10,0.00,2,2,0,2,7031,8809,491,8241,10,10,0,10,0.00,0.00,0.00,0.00
2014-05-08 15:10:00,2,8953,10,0.00,2,2,0,2,6528,10886,1316,8646,10,10,0,10,0.00,0.00,0.00,0.00
2014-05-08 15:20:00,2,5272,10,0.00,2,2,0,2,4074,6551,721,5166,10,10,0,10,0.00,0.00,0.00,0.00
2014-05-08 15:30:00,2,4272,69,0.03,2,2,0,2,3123,5561,629,4268,10,77,20,77,0.00,0.05,0.03,0.03
2014-05-08 15:40:00,2,6463,17,0.00,2,2,0,2,5463,7245,614,6450,10,77,20,10,0.00,0.00,0.00,0.00
2014-05-08 15:50:00,2,5048,10,0.00,2,2,0,2,3147,6932,1310,4950,10,10,0,10,0.00,0.00,0.00,0.00
2014-05-08 16:00:00,2,3968,10,0.00,2,2,0,2,2277,6269,1037,3844,10,10,0,10,0.00,0.00,0.00,0.00
2014-05-08 16:10:00,2,4956,62,0.01,2,2,0,2,3292,6445,967,4876,10,77,26,77,0.00,0.05,0.02,0.00
2014-05-08 16:20:00,2,5294,77,0.03,2,2,0,2,3488,6792,1170,5448,77,77,0,77,0.00,0.10,0.04,0.00
2014-05-08 16:30:00,2,5694,10,0.00,2,2,0,2,4291,7506,1080,5612,10,10,0,10,0.00,0.00,0.00,0.00
2014-05-08 16:40:00,2,6820,10,0.00,2,2,0,2,5626,7898,780,7154,10,10,0,10,0.00,0.00,0.00,0.00
2014-05-08 16:50:00,2,5611,10,0.00,2,2,0,2,4912,6636,629,5413,10,10,0,10,0.00,0.00,0.00,0.00
2014-05-08 17:00:00,2,5395,10,0.00,2,2,0,2,3834,6331,806,5479,10,10,0,10,0.00,0.00,0.00,0.00
2014-05-08 17:10:00,2,7758,10,0.00,2,2,0,2,3937,9461,1576,8222,10,10,0,10,0.00,0.00,0.00,0.00
2014-05-08 17:20:00,2,12469,10,0.00,2,2,0,2,8828,16845,2633,12832,10,10,0,10,0.00,0.00,0.00,0.00
2014-05-08 17:30:00,2,12175,1,0.00,2,2,0,2,8670,16764,2317,12472,0,10,3,0,0.00,0.00,0.00,0.00
2014-05-08 17:40:00,2,9614,4,0.00,2,2,0,2,7539,12895,1766,8922,0,10,5,0,0.00,0.00,0.00,0.00
2014-05-08 17:50:00,2,13228,6,0.00,2,2,0,2,11261,15114,1321,12866,0,10,5,10,0.00,0.00,0.00,0.00
2014-05-08 18:00:00,2,11155,0,0.00,2,2,0,2,7344,14908,2604,11383,0,0,0,0,0.00,0.00,0.00,0.00
2014-05-08 18:10:00,2,8353,8,0.00,2,2,0,2,6266,11122,1379,8151,0,10,4,10,0.00,0.00,0.00,0.00
2014-05-08 18:20:00,2,7352,10,0.00,2,2,0,2,4515,10333,1757,6655,10,10,0,10,0.00,0.00,0.00,0.00
2014-05-08 18:30:00,2,8376,10,0.00,2,2,0,2,5729,10175,1466,8604,10,10,0,10,0.00,0.00,0.00,0.00
2014-05-08 18:40:00,2,11017,10,0.00,2,2,0,2,8222,13999,1860,11014,10,10,0,10,0.00,0.00,0.00,0.00
2014-05-08 18:50:00,2,13048,3,0.00,2,2,0,2,10026,19483,2617,12242,0,10,5,0,0.00,0.00,0.00,0.00
2014-05-08 19:00:00,2,13558,0,0.00,2,2,0,2,6796,16881,3082,14526,0,0,0,0,0.00,0.00,0.00,0.00
2014-05-08 19:10:00,2,14242,0,0.00,2,2,0,2,10775,21776,3499,13066,0,0,0,0,0.00,0.00,0.00,0.00
2014-05-08 19:20:00,2,18358,0,0.00,2,2,0,2,10217,33545,7989,15280,0,0,0,0,0.00,0.00,0.00,0.00
2014-05-08 19:30:00,2,22614,0,0.00,2,2,0,2,18104,28449,3618,22329,0,0,0,0,0.00,0.00,0.00,0.00
2014-05-08 19:40:00,2,18794,0,0.00,2,2,0,2,14201,24213,2920,18301,0,0,0,0,0.00,0.00,0.00,0.00
2014-05-08 19:50:00,2,12562,0,0.00,2,2,0,2,9365,20482,3516,10863,0,0,0,0,0.00,0.00,0.00,0.00
2014-05-08 20:00:00,2,11128,0,0.00,2,2,0,2,7781,15142,2683,10502,0,0,0,0,0.00,0.00,0.00,0.00
2014-05-08 20:10:00,2,9481,0,0.00,2,2,0,2,6314,12946,1888,9018,0,0,0,0,0.00,0.00,0.00,0.00
2014-05-08 20:20:00,2,7405,9,0.00,2,2,0,2,5123,9745,1581,7242,0,10,3,10,0.00,0.00,0.00,0.00
2014-05-08 20:30:00,2,7371,10,0.00,2,2,0,2,5738,9410,1074,7441,10,10,0,10,0.00,0.00,0.00,0.00
2014-05-08 20:40:00,2,8797,10,0.00,2,2,0,2,6438,13963,2042,8296,10,10,0,10,0.00,0.00,0.00,0.00
2014-05-08 20:50:00,2,6077,10,0.00,2,2,0,2,4545,8407,1156,5915,10,10,0,10,0.00,0.00,0.00,0.00
2014-05-08 21:00:00,2,7307,10,0.00,2,2,0,2,5525,9164,1133,6996,10,10,0,10,0.00,0.00,0.00,0.00
2014-05-08 21:10:00,2,14576,9,0.00,2,2,0,2,10611,25661,4288,13051,0,10,3,10,0.00,0.00,0.00,0.00
2014-05-08 21:20:00,2,17453,0,0.00,2,2,0,2,11124,22895,3606,17162,0,0,0,0,0.00,0.00,0.00,0.00
2014-05-08 21:30:00,2,17017,0,0.00,2,2,0,2,12543,22734,3539,15644,0,0,0,0,0.00,0.00,0.00,0.00
2014-05-08 21:40:00,2,30053,0,0.00,2,2,0,2,12743,37640,7921,32766,0,0,0,0,0.00,0.00,0.00,0.00
2014-05-08 21:50:00,2,22972,0,0.00,2,2,0,2,15826,40438,6972,21121,0,0,0,0,0.00,0.00,0.00,0.00
2014-05-08 22:00:00,2,34126,0,0.00,2,2,0,2,30215,42765,4064,32440,0,0,0,0,0.00,0.00,0.00,0.00
2014-05-08 22:10:00,2,32722,0,0.00,2,2,0,2,14065,50000,11471,35126,0,0,0,0,0.00,0.00,0.00,0.00
2014-05-08 22:20:00,2,13366,0,0.00,2,2,0,2,6678,19430,4677,13668,0,0,0,0,0.00,0.00,0.00,0.00
2014-05-08 22:30:00,2,9385,5,0.00,2,2,0,2,6912,13065,2096,8748,0,10,5,5,0.00,0.00,0.00,0.00
2014-05-08 22:40:00,2,11315,5,0.00,2,2,0,2,7215,16876,2938,10750,0,10,5,5,0.00,0.00,0.00,0.00
2014-05-08 22:50:00,2,10689,7,0.00,2,2,0,2,7110,16530,2933,9968,0,10,5,10,0.00,0.00,0.00,0.00
2014-05-08 23:00:00,2,8018,6,0.00,2,2,0,2,5824,12685,2158,7127,0,10,5,10,0.00,0.00,0.00,0.00
2014-05-08 23:10:00,2,4896,10,0.00,2,2,0,2,3114,7083,1236,4498,10,10,0,10,0.00,0.00,0.00,0.00
2014-05-08 23:20:00,2,5847,10,0.00,2,2,0,2,3882,7627,1291,6318,10,10,0,10,0.00,0.00,0.00,0.00
2014-05-08 23:30:00,2,5375,10,0.00,2,2,0,2,4451,6691,691,5322,10,10,0,10,0.00,0.00,0.00,0.00
2014-05-08 23:40:00,2,6580,10,0.00,2,2,0,2,4608,8730,1202,6256,10,10,0,10,0.00,0.00,0.00,0.00
2014-05-08 23:50:00,2,9300,10,0.00,2,2,0,2,6270,12942,1935,9206,10,10,0,10,0.00,0.00,0.00,0.00
